User: anonymous   Login
Location: Saddleback Butte
(34.6776°N, 117.8050°W)
Time: 14:29:35
(UTC-07:00)
Language:

Cosmos 1862 Rocket - Orbit

View from above orbital plane
View from above orbital plane
View from above satellite
View from above satellite

Ground track
Ground track

The orbit data is extracted from the following two-line orbital elements,

1 18153U 87055B   16144.93069913 +.00000121 +00000-0 +11964-4 0  9998
2 18153 082.4994 109.9200 0020113 287.1927 072.7086 14.83113053539589
Epoch (UTC): 23 May 2016 22:20:12
Eccentricity: 0.0020113
inclination: 82.4994°
perigee height: 605 km
apogee height: 633 km
right ascension of ascending node: 109.9200°
argument of perigee: 287.1927°
revolutions per day: 14.83113053
mean anomaly at epoch: 72.7086°
orbit number at epoch: 53958

The dashed part of the orbit path shows where the satellite is in the earth's shadow,  

DLR